Kissimmee, FL

5:38 AM EST on November 12, 2019 (GMT -0500)
Kissimmee Municipal

Weather History for KISM - August, 2019

Change the Weather History Date:

Wednesday, August 7, 2019

  Actual Average Record
Temperature  
Mean Temperature 83 °F -  
Max Temperature 91 °F 91 °F 100 °F (1962)
Min Temperature 75 °F 73 °F 69 °F (1973)
Cooling Degree Days 18    
Growing Degree Days 33 (Base 50)    
Moisture  
Dew Point 75 °F    
Average Humidity 86    
Maximum Humidity 96    
Minimum Humidity 59    
Precipitation  
Precipitation 0.00 in - - ()
Sea Level Pressure  
Sea Level Pressure 30.01 in    
Wind  
Wind Speed 7 mph (SW)    
Max Wind Speed 14 mph    
Max Gust Speed -    
Visibility 9 miles    
Events Rain , Thunderstorm    
Averages and records for this station are not official NWS values.
T = Trace of Precipitation, MM = Missing Value Source: NWS Daily Summary

Daily Weather History Graph

Daily Weather History Graph

Search for Another Location

Airport or City:

Astronomy

Aug. 07, 2019 Rise Set
Actual Time 6:51 AM EDT 8:11 PM EDT
Civil Twilight 6:25 AM EDT 8:36 PM EDT
Nautical Twilight 5:56 AM EDT 9:06 PM EDT
Astronomical Twilight 5:24 AM EDT 9:37 PM EDT
Moon 1:44 PM EDT (8/7) 12:30 AM EDT (8/7)
Length of Visible Light 14h 10m
Length of Day
13h 20m
Waxing Crescent, 49% of the Moon is Illuminated
Aug 7
Waxing Crescent
Aug 7
First Quarter
Aug 15
Full
Aug 23
Last Quarter
Aug 30
New

Hourly Weather History & Observations

Time (EDT) Temp. Heat Index Dew Point Humidity Pressure Visibility Wind Dir Wind Speed Gust Speed Precip Events Conditions
12:56 AM 75.9 °F - 73.9 °F 94% 30.01 in 10.0 mi South 5.8 mph - N/A   Clear
1:56 AM 75.9 °F - 73.9 °F 94% 30.01 in 10.0 mi SSW 3.5 mph - N/A   Clear
2:56 AM 75.9 °F - 73.9 °F 94% 29.99 in 10.0 mi South 6.9 mph - N/A   Clear
3:56 AM 75.9 °F - 73.9 °F 94% 30.00 in 10.0 mi SSW 3.5 mph - N/A   Clear
4:56 AM 75.0 °F - 73.9 °F 96% 30.00 in 10.0 mi SW 3.5 mph - N/A   Clear
5:56 AM 75.0 °F - 73.9 °F 96% 30.00 in 10.0 mi Calm Calm - N/A   Clear
6:56 AM 75.0 °F - 73.9 °F 96% 30.01 in 10.0 mi SSW 3.5 mph - N/A   Clear
7:56 AM 77.0 °F - 75.0 °F 94% 30.03 in 10.0 mi SW 4.6 mph - N/A   Clear
8:56 AM 82.0 °F 90.2 °F 77.0 °F 85% 30.04 in 10.0 mi SW 5.8 mph - N/A   Partly Cloudy
9:56 AM 84.9 °F 96.6 °F 78.1 °F 80% 30.04 in 10.0 mi WSW 8.1 mph - N/A   Partly Cloudy
10:31 AM 87.8 °F 99.7 °F 77.0 °F 70% 30.02 in 10.0 mi WSW 9.2 mph - N/A Thunderstorm Mostly Cloudy
10:44 AM 87.8 °F 102.5 °F 78.8 °F 75% 30.02 in 10.0 mi West 11.5 mph - N/A Thunderstorm Partly Cloudy
10:56 AM 87.1 °F 98.8 °F 77.0 °F 72% 30.03 in 10.0 mi WSW 10.4 mph - N/A Thunderstorm Partly Cloudy
11:23 AM 84.2 °F 96.1 °F 78.8 °F 84% 30.02 in 10.0 mi NW 8.1 mph - N/A   Scattered Clouds
11:56 AM 84.0 °F 91.2 °F 73.9 °F 72% 30.05 in 10.0 mi West 10.4 mph - N/A   Mostly Cloudy
12:56 PM 87.1 °F 96.3 °F 75.0 °F 67% 30.01 in 10.0 mi West 11.5 mph - N/A   Scattered Clouds
1:56 PM 89.1 °F 98.0 °F 73.9 °F 61% 30.01 in 10.0 mi West 6.9 mph - N/A   Partly Cloudy
2:56 PM 90.0 °F 100.2 °F 75.0 °F 61% 29.97 in 10.0 mi WNW 8.1 mph - N/A   Scattered Clouds
3:29 PM 89.6 °F 98.2 °F 73.4 °F 59% 29.97 in 10.0 mi West 6.9 mph - N/A Thunderstorm Overcast
3:56 PM 91.0 °F 102.9 °F 75.9 °F 61% 29.96 in 10.0 mi SSW 11.5 mph - N/A Thunderstorm Mostly Cloudy
4:31 PM 78.8 °F - 75.2 °F 89% 30.01 in 2.0 mi East 13.8 mph - N/A Rain , Thunderstorm Thunderstorms and Rain
4:37 PM 78.8 °F - 75.2 °F 89% 30.02 in 7.0 mi ESE 12.7 mph - N/A Rain , Thunderstorm Light Thunderstorms and Rain
4:42 PM 78.8 °F - 75.2 °F 89% 30.02 in 1.8 mi SE 13.8 mph - N/A Rain , Thunderstorm Heavy Thunderstorms and Rain
4:52 PM 75.2 °F - 73.4 °F 94% 30.02 in 1.0 mi Variable 5.8 mph - N/A Rain , Thunderstorm Heavy Thunderstorms and Rain
5:06 PM 75.2 °F - 73.4 °F 94% 30.00 in 1.8 mi SSE 13.8 mph - N/A Rain , Thunderstorm Heavy Thunderstorms and Rain
5:14 PM 75.2 °F - 73.4 °F 94% 30.02 in 3.0 mi South 5.8 mph - N/A Rain , Thunderstorm Thunderstorms and Rain
5:42 PM 75.2 °F - 73.4 °F 94% 29.99 in 10.0 mi SW 3.5 mph - N/A Rain , Thunderstorm Light Rain
5:53 PM 77.0 °F - 75.2 °F 94% 30.00 in 10.0 mi SW 8.1 mph - N/A Rain , Thunderstorm Light Rain
5:56 PM 77.0 °F - 75.0 °F 94% 30.01 in 10.0 mi SW 9.2 mph - N/A Rain , Thunderstorm Light Rain
6:14 PM 77.0 °F - 75.2 °F 94% 29.99 in 10.0 mi SW 5.8 mph - N/A   Mostly Cloudy
6:56 PM 77.0 °F - 75.0 °F 94% 29.99 in 10.0 mi SSW 5.8 mph - N/A   Overcast
7:56 PM 75.0 °F - 73.0 °F 94% 29.99 in 10.0 mi SSW 5.8 mph - N/A Rain Light Rain
8:56 PM 75.0 °F - 73.0 °F 94% 29.99 in 10.0 mi SW 8.1 mph - N/A   Clear
9:56 PM 75.0 °F - 73.9 °F 96% 29.99 in 10.0 mi WSW 4.6 mph - N/A   Clear
10:56 PM 75.0 °F - 73.9 °F 96% 30.01 in 10.0 mi SSE 3.5 mph - N/A   Clear
11:56 PM 75.0 °F - 73.9 °F 96% 30.03 in 10.0 mi South 3.5 mph - N/A   Clear